Regional Weather Roundup
Issued by NWS

Home | Current Version | Previous Version | Graphics & Text | Print | Product List | Glossary On
Versions: 1 2 3 4 5 6 7 8 9 10 11 12 13 14 15 16 17 18 19 20 21 22 23 24 25 26 27 28 29 30 31 32 33 34 35 36 37 38 39 40 41 42 43 44 45 46 47 48 49 50
000
ASUS45 KBOU 042210
RWRCO

WEATHER ROUNDUP FOR COLORADO
NATIONAL WEATHER SERVICE DENVER/BOULDER CO
400 PM MDT SAT JUL 04 2015

NOTE: "FAIR" INDICATES FEW OR NO CLOUDS BELOW 12000 FEET WITH NO
SIGNIFICANT WEATHER AND/OR OBSTRUCTIONS TO VISIBILITY.

COZ001>005-013-030-031-042300-
...NORTHWEST COLORADO...

CITY           SKY/WX    TMP DP  RH WIND       PRES   REMARKS
CRAIG          TSTM      75  56  51 SE17      30.05S
HAYDEN         PTSUNNY   75  46  35 NW5       30.11R THUNDER
MEEKER         PTSUNNY   86  46  24 VRB6      30.07F
MOUNT WERNER   NOT AVBL
STEAMBOAT SPGS PTSUNNY   79  44  29 CALM      30.12F
WALDEN         MOSUNNY   73  37  27 S5        30.21F
$$

COZ006>008-011-042300-
...WEST CENTRAL VALLEYS...

CITY           SKY/WX    TMP DP  RH WIND       PRES   REMARKS
GRAND JUNCTION PTSUNNY   93  48  21 W3        29.93F
MONTROSE       MOSUNNY   90  49  24 SW7       30.03F
EAGLE          MOSUNNY   73  48  40 SW10      30.15F
RIFLE          PTSUNNY   91  48  22 E5        29.98F
DELTA          MOSUNNY   91  46  21 SE5       29.98F
NUCLA          MOSUNNY   88  43  20 N3        30.08F
$$

COZ017>023-064>068-042300-
...SOUTHWEST COLORADO...

CITY           SKY/WX    TMP DP  RH WIND       PRES   REMARKS
DURANGO        MOSUNNY   87  45  23 NW9       30.10F
CORTEZ         SUNNY     84  52  33 NW10      30.05F
PAGOSA SPRINGS CLOUDY    74  40  29 N9G20     30.22S
TELLURIDE      CLOUDY    60  50  69 CALM      30.39F
WOLF CREEK PAS NOT AVBL
$$

COZ009-010-012-014-032>034-037-058>063-042300-
...CENTRAL COLORADO...

CITY           SKY/WX    TMP DP  RH WIND       PRES   REMARKS
ASPEN          PTSUNNY   80  42  25 N17G24    30.20S
BUENA VISTA    PTSUNNY   67  49  51 SE9       30.23F
COPPER MTN     CLOUDY    63  37  39 W18       30.59S
BERTHOUD PASS  CLOUDY    46  37  71 MISG      30.63S
COTTONWOOD PAS NOT AVBL
GUNNISON       MOSUNNY   79  45  29 SW3       30.21F
KREMMLING      MOSUNNY   73  41  31 SW3       30.18F
LEADVILLE      CLOUDY    61  51  70 E3        30.38F
MONARCH PASS   PTSUNNY   61  43  51 N5        30.67F
SALIDA         CLOUDY    71  49  44 CALM      30.29S
SUNLIGHT       PTSUNNY   64  48  55 CALM      30.50S
WILKERSON PASS LGT RAIN  55  41  58 E5        30.53F
$$

COZ069>075-042300-
...SAN LUIS VALLEY/SANGRE DE CRISTO MOUNTAINS...

CITY           SKY/WX    TMP DP  RH WIND       PRES   REMARKS
ALAMOSA        MOSUNNY   80  47  31 SW10      30.17F
LA VETA PASS   PTSUNNY   59  37  44 MISG      30.42S
SAGUACHE       CLOUDY    72  39  30 NE21G28   30.23R THUNDER
$$

COZ035-036-038>040-042300-
...NORTHERN COLORADO FRONT RANGE...

CITY           SKY/WX    TMP DP  RH WIND       PRES   REMARKS
DENVER INTL AP PTSUNNY   91  44  19 N8        29.97F
DMNS CITY PARK   N/A     93  42  17 NE3       29.96F
AURORA         PTSUNNY   90  47  22 N8        29.99F
FRONT RANGE AP PTSUNNY   91  46  21 MISG      29.99F
ERIE MUNI ARPT PTSUNNY   86  49  27 N21G29    29.96S
BOULDER MUN AP RAIN      81  55  41 NW9G18    29.99R
CENTENNIAL     PTSUNNY   88  44  21 NE7       30.01F
BROOMFIELD     PTSUNNY   91  43  18 VRB5      30.00
FORT COLLINS   PTSUNNY   84  57  39 SW9       29.92F
LONGMONT       LGT RAIN  84  57  39 SW3       29.97F
$$

COZ041-046-047-076>085-087-088-042300-
...PIKES PEAK/PALMER DIVIDE AND SOUTHERN FOOTHILLS...

CITY           SKY/WX    TMP DP  RH WIND       PRES   REMARKS
COLO. SPRINGS  PTSUNNY   82  48  30 NW8       30.07F
A. F. ACADEMY  MOSUNNY   80  47  31 SE5       30.09S
ELLICOTT       MOSUNNY  N/A N/A N/A E3        30.06S
FALCON         MOSUNNY   81  46  28 W8        30.14S
FORT CARSON    PTSUNNY   81  55  40 W8        30.03F
LIMON          MOSUNNY   85  54  34 SE12      29.99F
MONUMENT HILL  NOT AVBL
TRINIDAD       PTSUNNY   84  50  30 W12G21    30.02F
$$

COZ042>045-048>051-090-091-042300-
...NORTHEAST COLORADO...

CITY           SKY/WX    TMP DP  RH WIND       PRES   REMARKS
GREELEY ARPT   MOSUNNY   93  55  27 SE8       29.91F
AKRON          SUNNY     91  53  27 S17       29.91F
BURLINGTON     SUNNY     93  52  24 S20       29.93F
WRAY           MOSUNNY   96  51  21 S9G24     29.88F
STERLING       SUNNY     97  54  23 S5          N/A
HOLYOKE        SUNNY     95  55  26 SE13G20   29.88F
FORT MORGAN    SUNNY     94  46  19 SE5       29.90F
$$

COZ086-089-092>099-042300-
...SOUTHEAST COLORADO...

CITY           SKY/WX    TMP DP  RH WIND       PRES   REMARKS
PUEBLO         CLOUDY    90  51  26 N8        29.94S
LA JUNTA       MOSUNNY   97  46  17 CALM      29.88F
LAMAR          SUNNY     98  51  20 S9G17     29.84F
SPRINGFIELD      N/A     94  53  25 S20G32    29.92F
$$



USA.gov is the U.S. government's official web portal to all federal, state and local government web resources and services.